sat.trackr.live / text

‹ back to catalog

STARLINK-30485

NORAD 57920 · 2023-147H

PAYLOAD ACTIVE UNKNOWN

§ Identity

Operator
Country
US
Launch date
2023-09-24
Launch site
AFETR
Launch vehicle
Mass (kg)
RCS (m²)

Purposes: comms

External: N2YO · Heavens-Above · Gunter

§ Orbital elements

Epoch: 2026-09-20T04:33:25.270848Z

Period
94.27 min
Inclination
43.0061°
Eccentricity
0.0002448
Mean motion
15.27576477 rev/d
Perigee alt
481.4 km
Apogee alt
484.7 km
Semi-major
6,861.2 km
B*
-2.5863e-6
RAAN
306.8352°
Arg perigee
290.0367°
Mean anomaly
70.0221°
Rev number
16,637

§ Raw data

STARLINK-304851 57920U 23147H   26263.18987582 -.00000334  00000+0 -25863-5 0  99972 57920  43.0061 306.8352 0002448 290.0367  70.0221 15.27576477166377

JSON: /api/v1/satellites/57920 · /tle

For live sub-satellite position, see the globe view (requires WebGL).

§ Visibility from observer

Set your observer location to see the next 7 days of passes ≥ 10°. The values pass through the URL so the page stays shareable.

No JS? Fill the form by hand. The geolocation button needs JavaScript.